Terug naar catalogus

SCOUT B R/B

ActiefUNKNOWN
NORAD 2206·ROCKET BODY·🇺🇸 United States

Gelanceerd Jun 10, 1966 vanaf Wallops Flight Facility

Loading…

Volgende Passages (komende 24 uur)

TLE

VersSource: Space-Track

Epoch: Sep 14, 2026, 01:26 UTC

1 02206U 66052B   26257.06005115 -.00000074  00000-0 -78368-4 0  9998
2 02206  40.8691 177.5859 2210741 286.9920  50.1332 10.14645113211807

Volg SCOUT B R/B in realtime met AllMySat

Download on the App Store